DLH2280 EDDM-LFKB

Flight info

Callsign DLH2280
Flight time 1h 7m
Altitude 37000
Route TURBU6E/08R TURBU Y107 TOBSO DCT BAKOR DCT OSBUL DCT OLETI M858 LIGUR
Aircraft A321/M-SDE2E3FGIJ1LORWXYZ/HB1

Departure

Time 2026-05-04 12:10
Airport Munich Airport (EDDM)

Arrival

Time 2026-05-04 13:18
Airport Bastia-Poretta International airport (LFKB)
Time Latitude Longitude Altitude Speed Heading
2026-05-04 11:40 48.35282 11.79770 1486 ft 0 kts 83°
2026-05-04 11:59 48.35282 11.79769 1478 ft 1 kts 83°
2026-05-04 11:59 48.35280 11.79733 1485 ft 4 kts 83°
2026-05-04 11:59 48.35277 11.79693 1473 ft 3 kts 83°
2026-05-04 12:00 48.35275 11.79661 1476 ft 4 kts 97°
2026-05-04 12:00 48.35283 11.79626 1479 ft 4 kts 143°
2026-05-04 12:00 48.35305 11.79616 1481 ft 4 kts 173°
2026-05-04 12:00 48.35317 11.79613 1485 ft 0 kts 173°
2026-05-04 12:02 48.35299 11.79618 1485 ft 3 kts 169°
2026-05-04 12:03 48.35269 11.79622 1485 ft 6 kts 173°
2026-05-04 12:03 48.35212 11.79632 1482 ft 10 kts 170°
2026-05-04 12:03 48.35142 11.79622 1478 ft 11 kts 212°
2026-05-04 12:03 48.35099 11.79529 1479 ft 11 kts 220°
2026-05-04 12:04 48.35020 11.79529 1485 ft 12 kts 172°
2026-05-04 12:04 48.34927 11.79545 1485 ft 14 kts 173°
2026-05-04 12:04 48.34824 11.79561 1485 ft 14 kts 185°
2026-05-04 12:04 48.34783 11.79447 1485 ft 15 kts 263°
2026-05-04 12:05 48.34767 11.79245 1479 ft 23 kts 263°
2026-05-04 12:05 48.34748 11.78999 1481 ft 24 kts 263°
2026-05-04 12:05 48.34728 11.78744 1475 ft 25 kts 263°
2026-05-04 12:05 48.34708 11.78478 1482 ft 26 kts 263°
2026-05-04 12:06 48.34687 11.78204 1478 ft 27 kts 263°
2026-05-04 12:06 48.34665 11.77922 1485 ft 27 kts 263°
2026-05-04 12:06 48.34643 11.77633 1485 ft 28 kts 263°
2026-05-04 12:06 48.34620 11.77338 1485 ft 29 kts 263°
2026-05-04 12:07 48.34597 11.77039 1478 ft 29 kts 263°
2026-05-04 12:07 48.34574 11.76744 1483 ft 28 kts 263°
2026-05-04 12:07 48.34551 11.76448 1472 ft 28 kts 263°
2026-05-04 12:07 48.34529 11.76153 1485 ft 28 kts 263°
2026-05-04 12:08 48.34506 11.75857 1473 ft 28 kts 264°
2026-05-04 12:08 48.34481 11.75559 1475 ft 29 kts 261°
2026-05-04 12:08 48.34463 11.75296 1480 ft 21 kts 265°
2026-05-04 12:08 48.34389 11.75221 1477 ft 15 kts 173°
2026-05-04 12:09 48.34282 11.75240 1480 ft 16 kts 173°
2026-05-04 12:09 48.34165 11.75261 1482 ft 18 kts 172°
2026-05-04 12:09 48.34091 11.75367 1481 ft 16 kts 98°
2026-05-04 12:09 48.34102 11.75545 1485 ft 25 kts 83°
2026-05-04 12:10 48.34154 11.76217 1481 ft 103 kts 83°
2026-05-04 12:10 48.34261 11.77590 1477 ft 163 kts 83°
2026-05-04 12:10 48.34399 11.79418 1943 ft 177 kts 83°
2026-05-04 12:10 48.34533 11.81255 2761 ft 176 kts 83°
2026-05-04 12:11 48.34670 11.83140 3195 ft 191 kts 83°
2026-05-04 12:11 48.34827 11.85230 3433 ft 212 kts 83°
2026-05-04 12:11 48.35008 11.87551 3643 ft 236 kts 83°
2026-05-04 12:11 48.35204 11.90077 4180 ft 247 kts 83°
2026-05-04 12:12 48.35401 11.92661 5014 ft 250 kts 84°
2026-05-04 12:12 48.35202 11.95247 5800 ft 254 kts 114°
2026-05-04 12:12 48.34099 11.97304 6613 ft 256 kts 141°
2026-05-04 12:12 48.32694 11.98950 7471 ft 257 kts 142°
2026-05-04 12:13 48.31274 12.00599 8278 ft 259 kts 142°
2026-05-04 12:14 48.17742 12.02087 13070 ft 298 kts 183°
2026-05-04 12:15 48.15661 12.01965 13764 ft 301 kts 183°
2026-05-04 12:15 48.13556 12.01846 14424 ft 305 kts 183°
2026-05-04 12:15 48.11428 12.01728 15078 ft 308 kts 183°
2026-05-04 12:15 48.09278 12.01604 15737 ft 310 kts 183°
2026-05-04 12:16 48.07119 12.01379 16350 ft 313 kts 190°
2026-05-04 12:16 48.04955 12.00606 16599 ft 329 kts 196°
2026-05-04 12:16 48.02688 11.99654 16740 ft 348 kts 197°
2026-05-04 12:16 48.00322 11.98647 17115 ft 358 kts 197°
2026-05-04 12:17 47.97916 11.97626 17635 ft 362 kts 197°
2026-05-04 12:17 47.95480 11.96593 18199 ft 365 kts 197°
2026-05-04 12:17 47.93025 11.95557 18728 ft 368 kts 196°
2026-05-04 12:17 47.90496 11.94880 19252 ft 372 kts 185°
2026-05-04 12:18 47.87896 11.94789 19751 ft 376 kts 181°
2026-05-04 12:18 47.85267 11.94749 20267 ft 379 kts 181°
2026-05-04 12:18 47.82620 11.94704 20759 ft 382 kts 181°
2026-05-04 12:18 47.79949 11.94654 21255 ft 385 kts 182°
2026-05-04 12:19 47.77261 11.94600 21709 ft 388 kts 182°
2026-05-04 12:19 47.74552 11.94547 22154 ft 391 kts 182°
2026-05-04 12:19 47.71821 11.94495 22594 ft 394 kts 181°
2026-05-04 12:19 47.69070 11.94447 23033 ft 396 kts 181°
2026-05-04 12:20 47.66305 11.94402 23438 ft 399 kts 181°
2026-05-04 12:20 47.63513 11.94357 23845 ft 402 kts 182°
2026-05-04 12:20 47.60708 11.94308 24257 ft 405 kts 181°
2026-05-04 12:20 47.57877 11.94260 24658 ft 408 kts 181°
2026-05-04 12:21 47.55034 11.94209 25056 ft 410 kts 182°
2026-05-04 12:21 47.52173 11.94156 25453 ft 412 kts 182°
2026-05-04 12:21 47.49295 11.94106 25844 ft 415 kts 182°
2026-05-04 12:21 47.46399 11.94056 26230 ft 417 kts 182°
2026-05-04 12:22 47.43493 11.93986 26595 ft 419 kts 184°
2026-05-04 12:22 47.40590 11.93508 26940 ft 421 kts 189°
2026-05-04 12:22 47.37683 11.92923 27300 ft 423 kts 189°
2026-05-04 12:22 47.34760 11.92336 27637 ft 425 kts 189°
2026-05-04 12:23 47.31785 11.91741 27984 ft 427 kts 189°
2026-05-04 12:23 47.28871 11.91159 28317 ft 429 kts 189°
2026-05-04 12:23 47.25906 11.90570 28656 ft 431 kts 189°
2026-05-04 12:23 47.22887 11.89970 28996 ft 433 kts 189°
2026-05-04 12:24 47.19888 11.89379 29325 ft 435 kts 189°
2026-05-04 12:24 47.16878 11.88786 29648 ft 437 kts 189°
2026-05-04 12:24 47.13856 11.88193 29964 ft 439 kts 189°
2026-05-04 12:24 47.10820 11.87591 30275 ft 441 kts 189°
2026-05-04 12:25 47.07770 11.86983 30570 ft 443 kts 189°
2026-05-04 12:25 47.04748 11.86381 30880 ft 445 kts 189°
2026-05-04 12:25 47.01636 11.85755 31168 ft 446 kts 189°
2026-05-04 12:25 46.98610 11.85008 31450 ft 447 kts 192°
2026-05-04 12:26 46.95557 11.84089 31708 ft 448 kts 194°
2026-05-04 12:26 46.92515 11.83066 31968 ft 449 kts 194°
2026-05-04 12:26 46.89484 11.82007 32322 ft 448 kts 195°
2026-05-04 12:26 46.86457 11.80957 32655 ft 446 kts 194°
2026-05-04 12:27 46.83431 11.79938 32992 ft 445 kts 194°
2026-05-04 12:27 46.80411 11.78961 33331 ft 444 kts 193°
2026-05-04 12:27 46.77392 11.78014 33652 ft 443 kts 193°
2026-05-04 12:27 46.74379 11.77080 33985 ft 442 kts 193°
2026-05-04 12:28 46.71373 11.76149 34320 ft 441 kts 193°
2026-05-04 12:28 46.68375 11.75220 34607 ft 440 kts 193°
2026-05-04 12:28 46.65383 11.74286 34889 ft 440 kts 193°
2026-05-04 12:28 46.62408 11.73267 35166 ft 439 kts 198°
2026-05-04 12:29 46.59567 11.71678 35433 ft 437 kts 207°
2026-05-04 12:29 46.56912 11.69546 35707 ft 436 kts 211°
2026-05-04 12:29 46.54289 11.67343 35984 ft 436 kts 211°
2026-05-04 12:29 46.51661 11.65155 36256 ft 435 kts 211°
2026-05-04 12:30 46.49031 11.62980 36499 ft 435 kts 211°
2026-05-04 12:30 46.46400 11.60809 36738 ft 435 kts 211°
2026-05-04 12:30 46.43777 11.58648 37041 ft 432 kts 210°
2026-05-04 12:30 46.41176 11.56505 37124 ft 428 kts 211°
2026-05-04 12:31 46.36037 11.52261 37135 ft 423 kts 211°
2026-05-04 12:31 46.30926 11.48043 37147 ft 423 kts 211°
2026-05-04 12:32 46.23263 11.41743 37157 ft 423 kts 210°
2026-05-04 12:33 46.18151 11.37556 37159 ft 423 kts 210°
2026-05-04 12:33 46.13026 11.33369 37169 ft 423 kts 210°
2026-05-04 12:34 46.07901 11.29182 37194 ft 423 kts 211°
2026-05-04 12:34 46.02774 11.24996 37197 ft 424 kts 210°
2026-05-04 12:35 45.97641 11.20823 37198 ft 424 kts 210°
2026-05-04 12:35 45.92506 11.16663 37198 ft 424 kts 210°
2026-05-04 12:36 45.87363 11.12506 37196 ft 424 kts 210°
2026-05-04 12:36 45.82224 11.08358 37177 ft 424 kts 210°
2026-05-04 12:37 45.77083 11.04214 37182 ft 424 kts 210°
2026-05-04 12:37 45.71946 11.00081 37168 ft 423 kts 210°
2026-05-04 12:38 45.66805 10.95965 37162 ft 424 kts 210°
2026-05-04 12:38 45.61663 10.91842 37149 ft 424 kts 210°
2026-05-04 12:39 45.56524 10.87728 37139 ft 423 kts 210°
2026-05-04 12:39 45.51376 10.83629 37124 ft 424 kts 210°
2026-05-04 12:40 45.46219 10.79527 37119 ft 424 kts 210°
2026-05-04 12:40 45.41071 10.75435 37115 ft 424 kts 210°
2026-05-04 12:41 45.35913 10.71350 37103 ft 424 kts 210°
2026-05-04 12:41 45.30762 10.67285 37107 ft 423 kts 210°
2026-05-04 12:42 45.25614 10.63219 37103 ft 423 kts 210°
2026-05-04 12:42 45.20462 10.59168 37110 ft 424 kts 210°
2026-05-04 12:43 45.15306 10.55120 37104 ft 424 kts 210°
2026-05-04 12:43 45.10149 10.51077 37106 ft 424 kts 210°
2026-05-04 12:44 45.04992 10.47039 37115 ft 424 kts 210°
2026-05-04 12:44 45.00706 10.43691 37117 ft 424 kts 210°
2026-05-04 12:45 44.95542 10.39666 37122 ft 424 kts 210°
2026-05-04 12:45 44.90374 10.35650 37124 ft 424 kts 210°
2026-05-04 12:46 44.85203 10.31646 37127 ft 424 kts 210°
2026-05-04 12:46 44.80343 10.26929 37127 ft 421 kts 224°
2026-05-04 12:47 44.76075 10.21357 37128 ft 421 kts 224°
2026-05-04 12:47 44.71774 10.15758 37132 ft 421 kts 224°
2026-05-04 12:48 44.67424 10.10146 37137 ft 421 kts 224°
2026-05-04 12:48 44.63128 10.04626 37138 ft 422 kts 224°
2026-05-04 12:49 44.58801 9.99066 37142 ft 421 kts 224°
2026-05-04 12:49 44.54486 9.93510 37151 ft 421 kts 224°
2026-05-04 12:50 44.50168 9.87962 37143 ft 421 kts 224°
2026-05-04 12:50 44.45848 9.82434 36791 ft 420 kts 224°
2026-05-04 12:50 44.43692 9.79682 36541 ft 419 kts 224°
2026-05-04 12:51 44.41540 9.76937 36295 ft 419 kts 224°
2026-05-04 12:51 44.39382 9.74189 36055 ft 421 kts 224°
2026-05-04 12:51 44.37201 9.71418 35793 ft 425 kts 224°
2026-05-04 12:51 44.35014 9.68640 35542 ft 425 kts 224°
2026-05-04 12:52 44.32826 9.65862 35295 ft 424 kts 224°
2026-05-04 12:52 44.30651 9.63099 35042 ft 422 kts 223°
2026-05-04 12:52 44.28491 9.60361 34661 ft 417 kts 223°
2026-05-04 12:52 44.26351 9.57651 34200 ft 414 kts 223°
2026-05-04 12:53 44.24229 9.54968 33738 ft 410 kts 223°
2026-05-04 12:53 44.22128 9.52312 33285 ft 406 kts 223°
2026-05-04 12:53 44.20044 9.49684 32828 ft 402 kts 223°
2026-05-04 12:53 44.17983 9.47085 32376 ft 398 kts 223°
2026-05-04 12:54 44.15938 9.44508 31918 ft 394 kts 223°
2026-05-04 12:54 44.13918 9.41964 31486 ft 390 kts 223°
2026-05-04 12:54 44.11914 9.39444 31051 ft 386 kts 223°
2026-05-04 12:54 44.09929 9.36950 30623 ft 382 kts 223°
2026-05-04 12:55 44.07962 9.34483 30199 ft 379 kts 223°
2026-05-04 12:55 44.06017 9.32045 29793 ft 375 kts 223°
2026-05-04 12:55 44.04091 9.29631 29397 ft 371 kts 223°
2026-05-04 12:55 44.02188 9.27242 29003 ft 366 kts 223°
2026-05-04 12:56 44.00310 9.24888 28617 ft 362 kts 222°
2026-05-04 12:56 43.98445 9.22561 28237 ft 358 kts 223°
2026-05-04 12:56 43.96606 9.20270 27867 ft 353 kts 223°
2026-05-04 12:56 43.94789 9.18005 27501 ft 349 kts 223°
2026-05-04 12:57 43.92992 9.15757 27136 ft 347 kts 223°
2026-05-04 12:57 43.91204 9.13531 26773 ft 345 kts 223°
2026-05-04 12:57 43.89420 9.11316 26407 ft 343 kts 222°
2026-05-04 12:57 43.87647 9.09117 26055 ft 342 kts 222°
2026-05-04 12:58 43.85879 9.06922 25687 ft 340 kts 222°
2026-05-04 12:58 43.84052 9.04874 25322 ft 338 kts 212°
2026-05-04 12:58 43.81916 9.03541 24925 ft 338 kts 196°
2026-05-04 12:58 43.79599 9.03093 24509 ft 337 kts 180°
2026-05-04 12:59 43.77286 9.03568 24089 ft 337 kts 163°
2026-05-04 12:59 43.75137 9.04852 23659 ft 337 kts 155°
2026-05-04 12:59 43.73068 9.06278 23239 ft 336 kts 155°
2026-05-04 12:59 43.70980 9.07714 22806 ft 334 kts 155°
2026-05-04 13:00 43.68904 9.09135 22381 ft 332 kts 155°
2026-05-04 13:00 43.66840 9.10544 21955 ft 330 kts 155°
2026-05-04 13:00 43.64788 9.11943 21530 ft 328 kts 155°
2026-05-04 13:00 43.62749 9.13334 21110 ft 326 kts 155°
2026-05-04 13:01 43.60727 9.14714 20695 ft 323 kts 155°
2026-05-04 13:01 43.58719 9.16083 20282 ft 321 kts 155°
2026-05-04 13:01 43.56724 9.17441 19878 ft 319 kts 155°
2026-05-04 13:01 43.54743 9.18786 19463 ft 317 kts 155°
2026-05-04 13:02 43.52769 9.20119 19057 ft 315 kts 155°
2026-05-04 13:02 43.50809 9.21442 18659 ft 312 kts 155°
2026-05-04 13:02 43.48866 9.22760 18258 ft 311 kts 155°
2026-05-04 13:02 43.46934 9.24071 17870 ft 309 kts 155°
2026-05-04 13:03 43.45014 9.25374 17472 ft 307 kts 155°
2026-05-04 13:03 43.43103 9.26666 17078 ft 305 kts 155°
2026-05-04 13:03 43.41206 9.27946 16692 ft 303 kts 155°
2026-05-04 13:03 43.39323 9.29221 16302 ft 301 kts 155°
2026-05-04 13:04 43.37450 9.30488 15911 ft 299 kts 155°
2026-05-04 13:04 43.35592 9.31742 15543 ft 297 kts 155°
2026-05-04 13:04 43.33746 9.32988 15162 ft 295 kts 155°
2026-05-04 13:04 43.31911 9.34224 14793 ft 293 kts 155°
2026-05-04 13:05 43.30086 9.35453 14422 ft 291 kts 155°
2026-05-04 13:05 43.28269 9.36672 14002 ft 291 kts 155°
2026-05-04 13:05 43.26454 9.37889 13615 ft 290 kts 155°
2026-05-04 13:05 43.24651 9.39092 13243 ft 287 kts 155°
2026-05-04 13:06 43.22861 9.40289 12883 ft 285 kts 155°
2026-05-04 13:06 43.21087 9.41480 12526 ft 283 kts 155°
2026-05-04 13:06 43.19331 9.42664 12178 ft 280 kts 155°
2026-05-04 13:06 43.17587 9.43841 11821 ft 278 kts 155°
2026-05-04 13:07 43.15857 9.45005 11478 ft 276 kts 155°
2026-05-04 13:07 43.14132 9.46161 11132 ft 275 kts 155°
2026-05-04 13:07 43.12420 9.47304 10786 ft 273 kts 155°
2026-05-04 13:07 43.10721 9.48435 10450 ft 270 kts 155°
2026-05-04 13:08 43.09034 9.49558 10113 ft 268 kts 154°
2026-05-04 13:08 43.07364 9.50672 9775 ft 266 kts 154°
2026-05-04 13:08 43.05706 9.51779 9444 ft 264 kts 154°
2026-05-04 13:08 43.04061 9.52878 9117 ft 262 kts 154°
2026-05-04 13:09 43.02428 9.53970 8781 ft 261 kts 154°
2026-05-04 13:09 43.00805 9.55055 8451 ft 259 kts 154°
2026-05-04 13:09 42.99189 9.56130 8130 ft 258 kts 154°
2026-05-04 13:09 42.97597 9.57187 7925 ft 251 kts 154°
2026-05-04 13:10 42.96048 9.58218 7732 ft 245 kts 154°
2026-05-04 13:10 42.94519 9.59239 7604 ft 244 kts 154°
2026-05-04 13:10 42.92911 9.59926 7476 ft 243 kts 173°
2026-05-04 13:10 42.91229 9.59840 7317 ft 243 kts 192°
2026-05-04 13:11 42.89602 9.59247 7034 ft 241 kts 195°
2026-05-04 13:11 42.87988 9.58647 6709 ft 240 kts 195°
2026-05-04 13:11 42.86378 9.58054 6389 ft 239 kts 194°
2026-05-04 13:11 42.84788 9.57445 6060 ft 236 kts 200°
2026-05-04 13:12 42.83301 9.56501 5738 ft 235 kts 206°
2026-05-04 13:12 42.81840 9.55516 5411 ft 233 kts 205°
2026-05-04 13:12 42.80394 9.54544 5114 ft 231 kts 205°
2026-05-04 13:12 42.78962 9.53583 4822 ft 227 kts 205°
2026-05-04 13:13 42.77565 9.52646 4506 ft 222 kts 205°
2026-05-04 13:13 42.76196 9.51723 4196 ft 217 kts 205°
2026-05-04 13:13 42.74860 9.50825 3899 ft 211 kts 205°
2026-05-04 13:13 42.73565 9.49952 3628 ft 205 kts 205°
2026-05-04 13:14 42.72316 9.49109 3372 ft 196 kts 205°
2026-05-04 13:14 42.71124 9.48307 3098 ft 187 kts 205°
2026-05-04 13:14 42.69983 9.47543 2844 ft 179 kts 205°
2026-05-04 13:14 42.68882 9.46815 2606 ft 173 kts 201°
2026-05-04 13:15 42.67739 9.46538 2377 ft 164 kts 176°
2026-05-04 13:15 42.66650 9.46619 2168 ft 149 kts 175°
2026-05-04 13:15 42.65650 9.46666 1922 ft 140 kts 177°
2026-05-04 13:15 42.64688 9.46677 1729 ft 137 kts 177°
2026-05-04 13:16 42.63737 9.46684 1552 ft 137 kts 177°
2026-05-04 13:16 42.62791 9.46684 1393 ft 136 kts 176°
2026-05-04 13:16 42.61852 9.46700 1209 ft 134 kts 176°
2026-05-04 13:16 42.60919 9.46716 1019 ft 134 kts 175°
2026-05-04 13:17 42.59989 9.46782 817 ft 134 kts 172°
2026-05-04 13:17 42.59063 9.46947 633 ft 134 kts 168°
2026-05-04 13:17 42.58153 9.47219 468 ft 134 kts 164°
2026-05-04 13:17 42.57258 9.47550 273 ft 133 kts 161°
2026-05-04 13:18 42.56369 9.47913 68 ft 134 kts 161°
2026-05-04 13:18 42.55553 9.48253 33 ft 102 kts 163°
2026-05-04 13:18 42.55081 9.48457 37 ft 32 kts 164°
2026-05-04 13:18 42.55001 9.48448 38 ft 1 kts 221°
2026-05-04 13:19 42.54991 9.48428 37 ft 5 kts 239°
2026-05-04 13:19 42.54980 9.48393 38 ft 7 kts 249°
2026-05-04 13:19 42.54951 9.48276 34 ft 13 kts 241°
2026-05-04 13:19 42.54880 9.48248 33 ft 5 kts 220°
2026-05-04 13:20 42.54873 9.48212 36 ft 1 kts 272°
2026-05-04 13:20 42.54882 9.48190 36 ft 4 kts 291°
2026-05-04 13:20 42.54887 9.48160 37 ft 2 kts 281°
2026-05-04 13:20 42.54888 9.48149 38 ft 0 kts 282°